Cloud_Cover
7 4 0 6 5 69 4 12 0 0 28 10 30 89 100 100 100 100 46 3 89 36 87 5 16 99 100 100 100 100 100 100 100 100 61 100 95 83 100 100 100 100 88 64 100
3 5 71 5 3 5 3 5 0 0 0 19 27 51 78 98 98 100 77 58 5 5 23 31 5 92 100 100 100 100 99 100 100 100 96 87 93 8 100 82 100 100 96 67 90
3 3 31 10 6 5 5 0 0 0 0 15 100 100 54 100 100 100 100 100 87 54 9 100 60 5 100 100 100 100 100 100 100 100 93 52 60 5 95 46 100 100 100 100 100
5 0 5 6 5 5 7 4 5 0 0 0 0 62 99 100 80 100 100 100 100 100 100 100 53 5 26 100 100 100 100 100 98 99 88 75 63 9 58 5 86 99 98 100 100
5 5 7 99 45 10 46 15 5 8 0 0 47 30 99 100 90 92 100 100 100 100 100 100 100 48 20 100 100 100 100 100 84 86 28 88 88 79 96 8 62 100 100 100 100
5 5 66 99 100 96 76 5 34 4 4 0 5 100 96 98 44 91 100 74 100 100 100 100 100 100 10 100 85 100 100 100 90 91 100 80 87 83 72 91 79 94 100 100 100
5 5 6 5 100 100 43 5 6 61 3 0 0 18 96 45 3 4 100 100 100 100 100 100 100 100 6 27 100 100 100 100 91 100 54 97 100 99 76 74 97 100 100 100 100
23 5 5 5 7 13 7 5 6 26 21 3 0 93 51 1 11 3 98 100 100 100 100 100 100 100 39 5 4 90 99 100 95 100 97 67 95 100 79 24 79 98 100 100 100
100 98 33 5 5 5 5 5 0 2 5 42 13 93 90 0 0 3 100 100 100 100 100 100 100 100 61 7 19 30 92 100 100 100 100 76 100 100 79 77 56 71 83 96 100
100 100 99 5 20 68 57 5 4 0 13 6 63 25 28 0 0 98 100 100 100 100 100 100 100 100 99 71 44 11 96 100 100 100 100 100 100 89 7 90 84 39 6 13 19
100 100 100 71 99 100 100 100 43 55 46 43 36 0 1 0 0 78 100 100 100 100 100 100 100 100 100 3 5 2 0 100 100 100 100 100 100 100 17 6 99 88 70 92 100
86 100 100 100 100 100 96 10 0 0 98 49 46 4 6 0 5 18 100 100 100 100 100 100 100 91 84 86 70 42 1 30 100 100 77 100 100 100 66 5 27 54 84 100 95
100 100 100 100 100 98 57 5 4 0 32 85 89 93 53 39 26 0 99 100 100 100 100 100 70 94 100 100 100 94 87 24 90 100 5 72 90 100 100 54 56 32 50 36 99
98 100 100 100 100 65 44 30 5 5 46 43 89 100 50 55 91 2 0 100 100 100 100 100 100 67 100 100 80 100 83 100 76 100 5 78 53 28 66 95 66 26 19 51 71
43 100 100 100 94 87 16 28 40 98 100 3 54 53 81 5 1 5 3 51 100 100 100 100 100 76 61 7 95 100 100 100 100 100 100 99 93 20 5 83 100 99 65 72 65
100 100 100 100 100 92 94 100 100 100 84 42 99 84 44 3 3 5 12 2 2 48 19 100 100 100 100 94 100 100 100 100 100 99 96 5 51 87 5 95 100 98 98 80 100
100 100 100 100 100 97 95 100 100 97 2 78 97 100 4 41 3 1 94 96 56 61 96 100 100 100 74 100 91 100 100 100 100 100 10 1 4 0 34 53 100 100 100 61 100
100 100 100 100 100 100 100 100 48 3 56 34 100 68 100 30 32 5 20 97 96 100 100 100 100 100 99 68 100 100 96 93 100 49 2 19 20 2 100 5 100 100 100 100 98
100 100 100 100 100 100 98 91 3 2 3 100 100 100 100 92 9 50 6 52 14 89 99 100 100 94 70 89 65 99 100 45 99 97 30 3 0 0 23 99 3 100 100 100 100
100 100 100 100 100 100 84 11 1 1 0 84 36 56 98 90 60 5 22 1 6 18 100 100 100 97 14 95 100 97 89 100 100 57 71 5 2 0 0 100 34 79 100 100 100
100 100 100 100 100 100 44 5 5 5 0 4 42 90 97 100 57 95 6 1 1 0 100 100 100 82 100 100 100 100 99 100 100 32 5 2 0 0 0 43 100 7 63 100 100
100 100 100 100 100 92 8 5 4 8 5 0 0 11 37 100 100 90 31 5 0 4 16 12 100 100 100 98 85 14 68 100 100 91 5 5 13 0 0 4 100 100 40 95 100
100 100 100 100 98 98 22 5 5 9 5 3 5 1 95 93 68 96 84 17 59 83 5 6 56 100 100 100 100 100 50 40 100 84 27 5 1 0 63 55 98 100 100 100 100
100 100 100 100 56 32 37 38 56 5 4 5 3 4 5 100 51 72 8 100 100 45 5 100 6 77 74 5 84 100 49 5 69 67 30 9 0 0 2 5 62 100 100 100 100
100 100 100 97 91 33 63 43 5 55 6 5 32 5 5 33 100 27 61 100 100 100 80 100 100 83 9 79 100 96 100 40 66 3 97 5 1 4 6 6 100 100 100 100 100
100 100 100 100 14 97 45 5 5 5 22 10 5 5 4 5 8 94 100 100 98 100 100 100 100 100 84 77 100 100 100 95 10 8 6 0 0 0 6 100 79 100 100 100 100
100 100 100 100 100 100 83 97 35 19 4 2 46 20 5 4 3 5 81 46 5 84 100 100 97 100 100 31 60 100 93 28 8 0 4 4 0 79 15 36 47 100 100 100 100